Time,TemperatureF,DewpointF,PressureIn,WindDirection,WindDirectionDegrees,WindSpeedMPH,WindSpeedGustMPH,Humidity,HourlyPrecipIn,Conditions,Clouds,dailyrainin,SoftwareType,DateUTC
2013-03-25 00:00:00,31.6,27.3,29.77,NNE,25,0.0,0.0,84,0.00,OVC,,0.00,WeatherDisplay:10.37,2013-03-25 04:00:00,
2013-03-25 00:05:00,31.3,27.0,29.77,NNE,25,0.0,0.0,84,0.00,FEW,,0.00,WeatherDisplay:10.37,2013-03-25 04:05:00,
2013-03-25 00:10:00,31.1,26.8,29.77,NNE,25,0.0,0.0,84,0.00,FEW,,0.00,WeatherDisplay:10.37,2013-03-25 04:10:00,
2013-03-25 00:15:00,30.9,26.9,29.77,NNE,25,0.0,0.0,85,0.00,FEW,,0.00,WeatherDisplay:10.37,2013-03-25 04:15:00,
2013-03-25 00:20:00,30.7,26.7,29.77,NNE,25,0.0,0.0,85,0.00,FEW,,0.00,WeatherDisplay:10.37,2013-03-25 04:20:00,
2013-03-25 00:25:00,30.5,26.5,29.77,NNE,25,0.0,0.0,85,0.00,FEW,,0.00,WeatherDisplay:10.37,2013-03-25 04:25:00,
2013-03-25 00:30:00,30.3,26.6,29.77,NNE,25,0.0,0.0,86,0.00,FEW,,0.00,WeatherDisplay:10.37,2013-03-25 04:30:00,
2013-03-25 00:35:00,30.2,26.8,29.77,NNE,25,0.0,0.0,87,0.00,FEW,,0.00,WeatherDisplay:10.37,2013-03-25 04:35:00,
2013-03-25 00:40:00,30.1,26.7,29.77,NNE,25,0.0,0.0,87,0.00,FEW,,0.00,WeatherDisplay:10.37,2013-03-25 04:40:00,
2013-03-25 00:45:00,29.9,26.5,29.76,NNE,25,0.0,0.0,87,0.00,FEW,,0.00,WeatherDisplay:10.37,2013-03-25 04:45:00,
2013-03-25 00:50:00,29.8,26.4,29.76,NNE,25,0.0,0.0,87,0.00,FEW,,0.00,WeatherDisplay:10.37,2013-03-25 04:50:00,
2013-03-25 00:55:00,29.7,26.3,29.76,NNE,25,0.0,0.0,87,0.00,FEW,,0.00,WeatherDisplay:10.37,2013-03-25 04:55:00,
2013-03-25 01:00:00,29.6,26.5,29.76,NNE,25,0.0,0.0,88,0.00,FEW,,0.00,WeatherDisplay:10.37,2013-03-25 05:00:00,
2013-03-25 01:05:00,29.4,26.3,29.76,NNE,25,0.0,0.0,88,0.00,FEW,,0.00,WeatherDisplay:10.37,2013-03-25 05:05:00,
2013-03-25 01:10:00,29.3,26.2,29.76,NNE,25,0.0,0.0,88,0.00,FEW,,0.00,WeatherDisplay:10.37,2013-03-25 05:10:00,
2013-03-25 01:15:00,29.2,26.1,29.75,NNE,25,0.0,0.0,88,0.00,FEW,,0.00,WeatherDisplay:10.37,2013-03-25 05:15:00,
2013-03-25 01:20:00,29.1,26.0,29.75,NNE,25,0.0,0.0,88,0.00,CLR,,0.00,WeatherDisplay:10.37,2013-03-25 05:20:00,
2013-03-25 01:25:00,29.0,26.2,29.75,NNE,25,0.0,0.0,89,0.00,CLR,,0.00,WeatherDisplay:10.37,2013-03-25 05:25:00,
2013-03-25 01:30:00,28.9,26.1,29.75,NNE,25,0.0,0.0,89,0.00,CLR,,0.00,WeatherDisplay:10.37,2013-03-25 05:30:00,
2013-03-25 01:35:00,28.8,26.0,29.75,NNE,25,0.0,0.0,89,0.00,CLR,,0.00,WeatherDisplay:10.37,2013-03-25 05:35:00,
2013-03-25 01:40:00,28.8,25.9,29.75,NNE,25,0.0,0.0,89,0.00,CLR,,0.00,WeatherDisplay:10.37,2013-03-25 05:40:00,
2013-03-25 01:45:00,28.7,26.1,29.75,NNE,25,0.0,0.0,90,0.00,CLR,,0.00,WeatherDisplay:10.37,2013-03-25 05:45:00,
2013-03-25 01:50:00,28.6,25.8,29.75,NNE,25,0.0,0.0,89,0.00,CLR,,0.00,WeatherDisplay:10.37,2013-03-25 05:50:00,
2013-03-25 01:55:00,28.5,25.9,29.75,NNE,25,0.0,0.0,90,0.00,CLR,,0.00,WeatherDisplay:10.37,2013-03-25 05:55:00,
2013-03-25 02:00:00,28.5,25.9,29.75,NNE,25,0.0,0.0,90,0.00,CLR,,0.00,WeatherDisplay:10.37,2013-03-25 06:00:00,
2013-03-25 02:05:00,28.4,25.8,29.75,NNE,25,0.0,0.0,90,0.00,CLR,,0.00,WeatherDisplay:10.37,2013-03-25 06:05:00,
2013-03-25 02:10:00,28.3,25.8,29.75,NNE,25,0.0,0.0,90,0.00,CLR,,0.00,WeatherDisplay:10.37,2013-03-25 06:10:00,
2013-03-25 02:15:00,28.3,25.7,29.75,NNE,25,0.0,0.0,90,0.00,CLR,,0.00,WeatherDisplay:10.37,2013-03-25 06:15:00,
2013-03-25 02:20:00,28.2,25.6,29.74,NNE,25,0.0,0.0,90,0.00,CLR,,0.00,WeatherDisplay:10.37,2013-03-25 06:20:00,
2013-03-25 02:25:00,28.1,25.5,29.74,NNE,25,0.0,0.0,90,0.00,CLR,,0.00,WeatherDisplay:10.37,2013-03-25 06:25:00,
2013-03-25 02:30:00,28.1,25.5,29.74,NNE,25,0.0,0.0,90,0.00,CLR,,0.00,WeatherDisplay:10.37,2013-03-25 06:30:00,
2013-03-25 02:35:00,28.0,25.5,29.74,NNE,25,0.0,0.0,90,0.00,CLR,,0.00,WeatherDisplay:10.37,2013-03-25 06:35:00,
2013-03-25 02:40:00,28.0,25.4,29.74,NNE,25,0.0,0.0,90,0.00,CLR,,0.00,WeatherDisplay:10.37,2013-03-25 06:40:00,
2013-03-25 02:45:00,27.9,25.3,29.74,NNE,25,0.0,0.0,90,0.00,CLR,,0.00,WeatherDisplay:10.37,2013-03-25 06:45:00,
2013-03-25 02:50:00,27.8,25.3,29.74,NNE,25,0.0,0.0,90,0.00,CLR,,0.00,WeatherDisplay:10.37,2013-03-25 06:50:00,
2013-03-25 02:55:00,27.8,25.2,29.74,NNE,25,0.0,0.0,90,0.00,CLR,,0.00,WeatherDisplay:10.37,2013-03-25 06:55:00,
2013-03-25 03:00:00,27.7,25.1,29.74,NNE,25,0.0,0.0,90,0.00,CLR,,0.00,WeatherDisplay:10.37,2013-03-25 07:00:00,
2013-03-25 03:05:00,27.6,25.1,29.74,NNE,25,0.0,0.0,90,0.00,CLR,,0.00,WeatherDisplay:10.37,2013-03-25 07:05:00,
2013-03-25 03:10:00,27.5,25.0,29.74,NNE,25,0.0,0.0,90,0.00,CLR,,0.00,WeatherDisplay:10.37,2013-03-25 07:10:00,
2013-03-25 03:15:00,27.4,24.9,29.74,NNE,25,0.0,0.0,90,0.00,CLR,,0.00,WeatherDisplay:10.37,2013-03-25 07:15:00,
2013-03-25 03:20:00,27.3,24.8,29.74,NNE,25,0.0,0.0,90,0.00,CLR,,0.00,WeatherDisplay:10.37,2013-03-25 07:20:00,
2013-03-25 03:25:00,27.2,24.7,29.74,NNE,25,0.0,0.0,90,0.00,CLR,,0.00,WeatherDisplay:10.37,2013-03-25 07:25:00,
2013-03-25 03:30:00,27.1,24.5,29.74,NNE,25,0.0,0.0,90,0.00,CLR,,0.00,WeatherDisplay:10.37,2013-03-25 07:30:00,
2013-03-25 03:35:00,27.0,24.4,29.74,NNE,25,0.0,0.0,90,0.00,CLR,,0.00,WeatherDisplay:10.37,2013-03-25 07:35:00,
2013-03-25 03:40:00,26.9,24.6,29.74,NNE,25,0.0,0.0,91,0.00,CLR,,0.00,WeatherDisplay:10.37,2013-03-25 07:40:00,
2013-03-25 03:45:00,26.8,24.2,29.73,NNE,25,0.0,0.0,90,0.00,CLR,,0.00,WeatherDisplay:10.37,2013-03-25 07:45:00,
2013-03-25 03:50:00,26.7,24.1,29.73,NNE,25,0.0,0.0,90,0.00,CLR,,0.00,WeatherDisplay:10.37,2013-03-25 07:50:00,
2013-03-25 03:55:00,26.6,24.3,29.73,NNE,25,0.0,0.0,91,0.00,CLR,,0.00,WeatherDisplay:10.37,2013-03-25 07:55:00,
2013-03-25 04:00:00,26.5,24.2,29.73,NNE,25,0.0,0.0,91,0.00,CLR,,0.00,WeatherDisplay:10.37,2013-03-25 08:00:00,
2013-03-25 04:05:00,26.4,24.1,29.73,NNE,25,0.0,0.0,91,0.00,CLR,,0.00,WeatherDisplay:10.37,2013-03-25 08:05:00,
2013-03-25 04:10:00,26.4,24.1,29.73,NNE,25,0.0,0.0,91,0.00,CLR,,0.00,WeatherDisplay:10.37,2013-03-25 08:10:00,
2013-03-25 04:15:00,26.3,24.0,29.73,NNE,25,0.0,0.0,91,0.00,CLR,,0.00,WeatherDisplay:10.37,2013-03-25 08:15:00,
2013-03-25 04:20:00,26.3,24.0,29.72,NNE,25,0.0,0.0,91,0.00,CLR,,0.00,WeatherDisplay:10.37,2013-03-25 08:20:00,
2013-03-25 04:25:00,26.2,23.9,29.72,NNE,25,0.0,0.0,91,0.00,CLR,,0.00,WeatherDisplay:10.37,2013-03-25 08:25:00,
2013-03-25 04:30:00,26.2,24.2,29.72,NNE,25,0.0,0.0,92,0.00,CLR,,0.00,WeatherDisplay:10.37,2013-03-25 08:30:00,
2013-03-25 04:35:00,26.2,24.2,29.72,NNE,25,0.0,0.0,92,0.00,CLR,,0.00,WeatherDisplay:10.37,2013-03-25 08:35:00,
2013-03-25 04:40:00,26.2,24.2,29.72,NNE,25,0.0,0.0,92,0.00,CLR,,0.00,WeatherDisplay:10.37,2013-03-25 08:40:00,
2013-03-25 04:45:00,26.3,24.3,29.72,NNE,25,0.0,0.0,92,0.00,CLR,,0.00,WeatherDisplay:10.37,2013-03-25 08:45:00,
2013-03-25 04:50:00,26.3,24.3,29.71,NNE,25,0.0,0.0,92,0.00,CLR,,0.00,WeatherDisplay:10.37,2013-03-25 08:50:00,
2013-03-25 04:55:00,26.3,24.3,29.71,NNE,25,0.0,0.0,92,0.00,CLR,,0.00,WeatherDisplay:10.37,2013-03-25 08:55:00,
2013-03-25 05:00:00,26.3,24.0,29.71,NNE,25,0.0,0.0,91,0.00,CLR,,0.00,WeatherDisplay:10.37,2013-03-25 09:00:00,
2013-03-25 05:05:00,26.3,24.0,29.71,NNE,25,0.0,0.0,91,0.00,CLR,,0.00,WeatherDisplay:10.37,2013-03-25 09:05:00,
2013-03-25 05:10:00,26.2,23.9,29.71,NNE,25,0.0,0.0,91,0.00,CLR,,0.00,WeatherDisplay:10.37,2013-03-25 09:10:00,
2013-03-25 05:15:00,26.1,23.8,29.72,NNE,25,0.0,0.0,91,0.00,CLR,,0.00,WeatherDisplay:10.37,2013-03-25 09:15:00,
2013-03-25 05:20:00,26.0,23.8,29.71,NNE,25,0.0,0.0,91,0.00,CLR,,0.00,WeatherDisplay:10.37,2013-03-25 09:20:00,
2013-03-25 05:25:00,26.0,23.7,29.72,NNE,25,0.0,0.0,91,0.00,CLR,,0.00,WeatherDisplay:10.37,2013-03-25 09:25:00,
2013-03-25 05:30:00,26.0,23.7,29.72,NNE,25,0.0,0.0,91,0.00,CLR,,0.00,WeatherDisplay:10.37,2013-03-25 09:30:00,
2013-03-25 05:35:00,25.9,23.6,29.71,NNE,25,0.0,0.0,91,0.00,CLR,,0.00,WeatherDisplay:10.37,2013-03-25 09:35:00,
2013-03-25 05:40:00,25.8,23.5,29.71,NNE,25,0.0,0.0,91,0.00,CLR,,0.00,WeatherDisplay:10.37,2013-03-25 09:40:00,
2013-03-25 05:45:00,25.8,23.5,29.71,NNE,25,0.0,0.0,91,0.00,CLR,,0.00,WeatherDisplay:10.37,2013-03-25 09:45:00,
2013-03-25 05:50:00,25.7,23.4,29.71,NNE,25,0.0,0.0,91,0.00,CLR,,0.00,WeatherDisplay:10.37,2013-03-25 09:50:00,
2013-03-25 05:55:00,25.6,23.6,29.71,NNE,25,0.0,0.0,92,0.00,CLR,,0.00,WeatherDisplay:10.37,2013-03-25 09:55:00,
2013-03-25 06:00:00,25.6,23.6,29.71,NNE,25,0.0,0.0,92,0.00,CLR,,0.00,WeatherDisplay:10.37,2013-03-25 10:00:00,
2013-03-25 06:05:00,25.6,23.6,29.71,NNE,25,0.0,0.0,92,0.00,CLR,,0.00,WeatherDisplay:10.37,2013-03-25 10:05:00,
2013-03-25 06:10:00,25.6,23.6,29.71,NNE,25,0.0,0.0,92,0.00,CLR,,0.00,WeatherDisplay:10.37,2013-03-25 10:10:00,
2013-03-25 06:15:00,25.6,23.6,29.71,NNE,25,0.0,0.0,92,0.00,CLR,,0.00,WeatherDisplay:10.37,2013-03-25 10:15:00,
2013-03-25 06:20:00,25.6,23.6,29.71,NNE,25,0.0,0.0,92,0.00,CLR,,0.00,WeatherDisplay:10.37,2013-03-25 10:20:00,
2013-03-25 06:25:00,25.6,23.6,29.70,NNE,25,0.0,0.0,92,0.00,CLR,,0.00,WeatherDisplay:10.37,2013-03-25 10:25:00,
2013-03-25 06:30:00,25.6,23.6,29.70,NNE,25,0.0,0.0,92,0.00,CLR,,0.00,WeatherDisplay:10.37,2013-03-25 10:30:00,
2013-03-25 06:35:00,25.7,23.7,29.70,NNE,25,0.0,0.0,92,0.00,CLR,,0.00,WeatherDisplay:10.37,2013-03-25 10:35:00,
2013-03-25 06:40:00,25.7,23.7,29.70,NNE,25,0.0,0.0,92,0.00,CLR,,0.00,WeatherDisplay:10.37,2013-03-25 10:40:00,
2013-03-25 06:45:00,25.7,23.7,29.70,NNE,25,0.0,0.0,92,0.00,CLR,,0.00,WeatherDisplay:10.37,2013-03-25 10:45:00,
2013-03-25 06:50:00,25.8,23.8,29.70,NNE,25,0.0,0.0,92,0.00,CLR,,0.00,WeatherDisplay:10.37,2013-03-25 10:50:00,
2013-03-25 06:55:00,25.9,23.9,29.70,NNE,25,0.0,0.0,92,0.00,CLR,,0.00,WeatherDisplay:10.37,2013-03-25 10:55:00,
2013-03-25 07:00:00,26.1,24.1,29.70,NNE,25,0.0,0.0,92,0.00,CLR,,0.00,WeatherDisplay:10.37,2013-03-25 11:00:00,
2013-03-25 07:05:00,26.3,24.0,29.70,NNE,25,0.0,0.0,91,0.00,CLR,,0.00,WeatherDisplay:10.37,2013-03-25 11:05:00,
2013-03-25 07:10:00,26.4,24.1,29.70,NNE,25,0.0,0.0,91,0.00,CLR,,0.00,WeatherDisplay:10.37,2013-03-25 11:10:00,
2013-03-25 07:15:00,26.5,24.2,29.70,NNE,25,0.0,0.0,91,0.00,CLR,,0.00,WeatherDisplay:10.37,2013-03-25 11:15:00,
2013-03-25 07:20:00,26.7,24.4,29.70,NNE,25,0.0,0.0,91,0.00,CLR,,0.00,WeatherDisplay:10.37,2013-03-25 11:20:00,
2013-03-25 07:25:00,26.8,24.8,29.70,NNE,25,0.0,0.0,92,0.00,CLR,,0.00,WeatherDisplay:10.37,2013-03-25 11:25:00,
2013-03-25 07:30:00,26.9,24.6,29.71,NNE,25,0.0,0.0,91,0.00,CLR,,0.00,WeatherDisplay:10.37,2013-03-25 11:30:00,
2013-03-25 07:35:00,27.0,24.7,29.71,NNE,25,0.0,0.0,91,0.00,CLR,,0.00,WeatherDisplay:10.37,2013-03-25 11:35:00,
2013-03-25 07:40:00,27.2,24.9,29.71,NNE,25,0.0,0.0,91,0.00,CLR,,0.00,WeatherDisplay:10.37,2013-03-25 11:40:00,
2013-03-25 07:45:00,27.4,25.1,29.71,NNE,25,0.0,0.0,91,0.00,CLR,,0.00,WeatherDisplay:10.37,2013-03-25 11:45:00,
2013-03-25 07:50:00,27.6,25.0,29.71,NNE,25,0.0,0.0,90,0.00,CLR,,0.00,WeatherDisplay:10.37,2013-03-25 11:50:00,
2013-03-25 08:00:00,28.0,25.2,29.71,NNE,25,0.0,0.0,89,0.00,CLR,,0.00,WeatherDisplay:10.37,2013-03-25 12:00:00,
2013-03-25 08:05:00,28.3,25.5,29.71,NNE,25,0.0,0.0,89,0.00,CLR,,0.00,WeatherDisplay:10.37,2013-03-25 12:05:00,
2013-03-25 08:10:00,28.6,26.1,29.71,NNE,25,0.0,0.0,90,0.00,CLR,,0.00,WeatherDisplay:10.37,2013-03-25 12:10:00,
2013-03-25 08:15:00,29.1,26.2,29.71,NNE,23,1.0,3.0,89,0.00,CLR,,0.00,WeatherDisplay:10.37,2013-03-25 12:15:00,
2013-03-25 08:20:00,29.6,26.7,29.71,NNE,27,0.0,0.0,89,0.00,CLR,,0.00,WeatherDisplay:10.37,2013-03-25 12:20:00,
2013-03-25 08:25:00,30.1,27.0,29.71,North,356,0.0,0.0,88,0.00,CLR,,0.00,WeatherDisplay:10.37,2013-03-25 12:25:00,
2013-03-25 08:30:00,30.8,27.1,29.71,NNW,341,0.0,0.0,86,0.00,CLR,,0.00,WeatherDisplay:10.37,2013-03-25 12:30:00,
2013-03-25 08:35:00,31.5,27.5,29.71,NNW,344,1.0,6.0,85,0.00,CLR,,0.00,WeatherDisplay:10.37,2013-03-25 12:35:00,
2013-03-25 08:40:00,32.3,27.7,29.71,North,9,0.0,3.0,83,0.00,CLR,,0.00,WeatherDisplay:10.37,2013-03-25 12:40:00,
2013-03-25 08:45:00,33.0,28.1,29.71,NNE,30,1.0,7.0,82,0.00,CLR,,0.00,WeatherDisplay:10.37,2013-03-25 12:45:00,
2013-03-25 08:50:00,33.6,28.0,29.71,NE,38,1.0,4.0,80,0.00,CLR,,0.00,WeatherDisplay:10.37,2013-03-25 12:50:00,
2013-03-25 08:55:00,34.1,28.2,29.71,North,7,0.0,4.0,79,0.00,CLR,,0.00,WeatherDisplay:10.37,2013-03-25 12:55:00,
2013-03-25 09:00:00,34.5,28.6,29.71,North,353,1.0,4.0,79,0.00,CLR,,0.00,WeatherDisplay:10.37,2013-03-25 13:00:00,
2013-03-25 09:05:00,34.9,28.7,29.71,NNE,22,0.0,4.0,78,0.00,CLR,,0.00,WeatherDisplay:10.37,2013-03-25 13:05:00,
2013-03-25 09:10:00,35.2,28.8,29.71,NNE,22,1.0,4.0,77,0.00,CLR,,0.00,WeatherDisplay:10.37,2013-03-25 13:10:00,
2013-03-25 09:15:00,35.6,29.1,29.71,NNE,22,2.0,5.0,77,0.00,CLR,,0.00,WeatherDisplay:10.37,2013-03-25 13:15:00,
2013-03-25 09:20:00,35.9,29.4,29.70,NE,48,1.0,4.0,77,0.00,CLR,,0.00,WeatherDisplay:10.37,2013-03-25 13:20:00,
2013-03-25 09:30:00,36.4,29.6,29.70,NNE,32,1.0,5.0,76,0.00,CLR,,0.00,WeatherDisplay:10.37,2013-03-25 13:30:00,
2013-03-25 09:35:00,36.6,29.4,29.70,ENE,68,2.0,4.0,75,0.00,CLR,,0.00,WeatherDisplay:10.37,2013-03-25 13:35:00,
2013-03-25 09:40:00,36.9,29.7,29.70,NE,53,3.0,6.0,75,0.00,CLR,,0.00,WeatherDisplay:10.37,2013-03-25 13:40:00,
2013-03-25 09:45:00,37.2,30.0,29.69,NE,53,0.0,5.0,75,0.00,CLR,,0.00,WeatherDisplay:10.37,2013-03-25 13:45:00,
2013-03-25 09:50:00,37.6,30.0,29.69,NE,42,2.0,6.0,74,0.00,CLR,,0.00,WeatherDisplay:10.37,2013-03-25 13:50:00,
2013-03-25 09:55:00,38.0,30.4,29.69,NE,41,2.0,4.0,74,0.00,CLR,,0.00,WeatherDisplay:10.37,2013-03-25 13:55:00,
2013-03-25 10:00:00,38.3,30.4,29.69,NE,52,1.0,6.0,73,0.00,CLR,,0.00,WeatherDisplay:10.37,2013-03-25 14:00:00,
2013-03-25 10:05:00,38.3,30.4,29.69,NE,56,2.0,12.0,73,0.00,CLR,,0.00,WeatherDisplay:10.37,2013-03-25 14:05:00,
2013-03-25 10:10:00,38.3,30.1,29.68,ENE,59,3.0,8.0,72,0.00,CLR,,0.00,WeatherDisplay:10.37,2013-03-25 14:10:00,
2013-03-25 10:20:00,38.6,30.4,29.68,ENE,59,2.0,5.0,72,0.00,CLR,,0.00,WeatherDisplay:10.37,2013-03-25 14:20:00,
2013-03-25 10:30:00,38.9,29.9,29.68,East,90,1.0,8.0,70,0.00,CLR,,0.00,WeatherDisplay:10.37,2013-03-25 14:30:00,
2013-03-25 10:35:00,39.1,30.5,29.67,East,93,2.0,8.0,71,0.00,CLR,,0.00,WeatherDisplay:10.37,2013-03-25 14:35:00,
2013-03-25 10:40:00,39.4,30.0,29.67,East,83,0.0,4.0,69,0.00,CLR,,0.00,WeatherDisplay:10.37,2013-03-25 14:40:00,
2013-03-25 10:45:00,39.6,30.6,29.67,East,89,2.0,7.0,70,0.00,CLR,,0.00,WeatherDisplay:10.37,2013-03-25 14:45:00,
2013-03-25 10:50:00,39.7,30.7,29.67,ENE,69,1.0,12.0,70,0.00,CLR,,0.00,WeatherDisplay:10.37,2013-03-25 14:50:00,
2013-03-25 10:55:00,39.9,30.5,29.67,NE,49,1.0,5.0,69,0.00,CLR,,0.00,WeatherDisplay:10.37,2013-03-25 14:55:00,
2013-03-25 11:00:00,40.1,30.4,29.67,ENE,62,2.0,7.0,68,0.00,CLR,,0.00,WeatherDisplay:10.37,2013-03-25 15:00:00,
2013-03-25 11:05:00,40.1,30.3,29.67,ENE,64,0.0,7.0,68,0.00,FEW,,0.00,WeatherDisplay:10.37,2013-03-25 15:05:00,
2013-03-25 11:10:00,40.1,30.7,29.67,NE,56,0.0,4.0,69,0.00,FEW,,0.00,WeatherDisplay:10.37,2013-03-25 15:10:00,
2013-03-25 11:15:00,40.4,30.6,29.67,NNE,19,2.0,5.0,68,0.00,FEW,,0.00,WeatherDisplay:10.37,2013-03-25 15:15:00,
2013-03-25 11:20:00,40.5,30.8,29.66,NNE,32,1.0,7.0,68,0.00,FEW,,0.00,WeatherDisplay:10.37,2013-03-25 15:20:00,
2013-03-25 11:25:00,40.5,30.4,29.66,ENE,75,1.0,7.0,67,0.00,FEW,,0.00,WeatherDisplay:10.37,2013-03-25 15:25:00,
2013-03-25 11:30:00,40.6,30.9,29.66,East,88,1.0,4.0,68,0.00,FEW,,0.00,WeatherDisplay:10.37,2013-03-25 15:30:00,
2013-03-25 11:35:00,40.8,30.7,29.66,ENE,63,0.0,5.0,67,0.00,FEW,,0.00,WeatherDisplay:10.37,2013-03-25 15:35:00,
2013-03-25 11:40:00,41.2,30.7,29.66,ENE,62,0.0,4.0,66,0.00,FEW,,0.00,WeatherDisplay:10.37,2013-03-25 15:40:00,
2013-03-25 11:45:00,41.6,31.4,29.66,NE,42,0.0,4.0,67,0.00,FEW,,0.00,WeatherDisplay:10.37,2013-03-25 15:45:00,
2013-03-25 11:50:00,41.8,31.3,29.65,NNE,33,1.0,6.0,66,0.00,FEW,,0.00,WeatherDisplay:10.37,2013-03-25 15:50:00,
2013-03-25 11:55:00,41.9,30.6,29.65,ENE,64,5.0,8.0,64,0.00,FEW,,0.00,WeatherDisplay:10.37,2013-03-25 15:55:00,
2013-03-25 12:05:00,42.1,31.2,29.65,ENE,60,0.0,5.0,65,0.00,FEW,,0.00,WeatherDisplay:10.37,2013-03-25 16:05:00,
2013-03-25 12:10:00,42.1,30.8,29.65,ENE,70,1.0,6.0,64,0.00,FEW,,0.00,WeatherDisplay:10.37,2013-03-25 16:10:00,
2013-03-25 12:15:00,41.9,31.0,29.64,ENE,75,1.0,5.0,65,0.00,FEW,,0.00,WeatherDisplay:10.37,2013-03-25 16:15:00,
2013-03-25 12:20:00,41.8,30.5,29.64,East,87,1.0,9.0,64,0.00,BKN,,0.00,WeatherDisplay:10.37,2013-03-25 16:20:00,
2013-03-25 12:25:00,41.8,30.9,29.64,ENE,75,2.0,9.0,65,0.00,BKN,,0.00,WeatherDisplay:10.37,2013-03-25 16:25:00,
2013-03-25 12:30:00,41.9,31.0,29.64,ENE,57,1.0,7.0,65,0.00,BKN,,0.00,WeatherDisplay:10.37,2013-03-25 16:30:00,
2013-03-25 12:35:00,42.1,31.1,29.64,ENE,57,3.0,7.0,65,0.00,BKN,,0.00,WeatherDisplay:10.37,2013-03-25 16:35:00,
2013-03-25 12:45:00,42.3,30.9,29.64,ENE,59,7.0,12.0,64,0.00,BKN,,0.00,WeatherDisplay:10.37,2013-03-25 16:45:00,
2013-03-25 12:50:00,42.2,30.9,29.63,East,98,3.0,10.0,64,0.00,BKN,,0.00,WeatherDisplay:10.37,2013-03-25 16:50:00,
2013-03-25 12:55:00,42.3,30.6,29.63,ESE,110,2.0,8.0,63,0.00,BKN,,0.00,WeatherDisplay:10.37,2013-03-25 16:55:00,
2013-03-25 13:00:00,42.5,30.8,29.63,East,80,1.0,6.0,63,0.00,BKN,,0.00,WeatherDisplay:10.37,2013-03-25 17:00:00,
2013-03-25 13:05:00,42.8,30.7,29.63,East,82,2.0,7.0,62,0.00,BKN,,0.00,WeatherDisplay:10.37,2013-03-25 17:05:00,
2013-03-25 13:10:00,42.7,30.6,29.63,East,88,1.0,9.0,62,0.00,BKN,,0.00,WeatherDisplay:10.37,2013-03-25 17:10:00,
2013-03-25 13:15:00,42.3,31.0,29.63,ENE,75,2.0,8.0,64,0.00,BKN,,0.00,WeatherDisplay:10.37,2013-03-25 17:15:00,
2013-03-25 13:20:00,42.2,31.3,29.63,ENE,60,3.0,7.0,65,0.00,BKN,,0.00,WeatherDisplay:10.37,2013-03-25 17:20:00,
2013-03-25 13:25:00,42.3,31.8,29.62,NE,56,0.0,8.0,66,0.00,BKN,,0.00,WeatherDisplay:10.37,2013-03-25 17:25:00,
2013-03-25 13:30:00,42.3,31.4,29.62,ENE,76,1.0,7.0,65,0.00,BKN,,0.00,WeatherDisplay:10.37,2013-03-25 17:30:00,
2013-03-25 13:35:00,42.3,31.7,29.62,ESE,116,2.0,8.0,66,0.00,BKN,,0.00,WeatherDisplay:10.37,2013-03-25 17:35:00,
2013-03-25 13:40:00,42.3,31.4,29.61,ENE,76,3.0,7.0,65,0.00,BKN,,0.00,WeatherDisplay:10.37,2013-03-25 17:40:00,
2013-03-25 13:45:00,42.2,31.6,29.61,ENE,59,2.0,6.0,66,0.00,BKN,,0.00,WeatherDisplay:10.37,2013-03-25 17:45:00,
2013-03-25 13:50:00,42.1,31.6,29.61,ENE,59,3.0,13.0,66,0.00,BKN,,0.00,WeatherDisplay:10.37,2013-03-25 17:50:00,
2013-03-25 13:55:00,41.9,30.2,29.61,East,80,5.0,10.0,63,0.00,BKN,,0.00,WeatherDisplay:10.37,2013-03-25 17:55:00,
2013-03-25 14:00:00,41.9,31.0,29.61,ENE,78,5.0,8.0,65,0.00,BKN,,0.00,WeatherDisplay:10.37,2013-03-25 18:00:00,
2013-03-25 14:05:00,42.1,31.6,29.61,ENE,78,3.0,7.0,66,0.00,BKN,,0.00,WeatherDisplay:10.37,2013-03-25 18:05:00,
2013-03-25 14:10:00,42.4,31.1,29.61,East,99,5.0,9.0,64,0.00,BKN,,0.00,WeatherDisplay:10.37,2013-03-25 18:10:00,
2013-03-25 14:15:00,42.7,31.8,29.61,East,88,3.0,8.0,65,0.00,BKN,,0.00,WeatherDisplay:10.37,2013-03-25 18:15:00,
2013-03-25 14:20:00,43.3,32.0,29.61,East,95,3.0,13.0,64,0.00,BKN,,0.00,WeatherDisplay:10.37,2013-03-25 18:20:00,
2013-03-25 14:25:00,43.6,31.8,29.61,ESE,122,6.0,12.0,63,0.00,BKN,,0.00,WeatherDisplay:10.37,2013-03-25 18:25:00,
2013-03-25 14:30:00,43.7,32.3,29.60,SE,126,2.0,8.0,64,0.00,BKN,,0.00,WeatherDisplay:10.37,2013-03-25 18:30:00,
2013-03-25 14:35:00,43.8,31.6,29.60,ESE,112,6.0,13.0,62,0.00,BKN,,0.00,WeatherDisplay:10.37,2013-03-25 18:35:00,
2013-03-25 14:40:00,43.8,32.0,29.60,East,98,5.0,12.0,63,0.00,BKN,,0.00,WeatherDisplay:10.37,2013-03-25 18:40:00,
2013-03-25 14:45:00,43.6,31.8,29.60,East,99,6.0,14.0,63,0.00,BKN,,0.00,WeatherDisplay:10.37,2013-03-25 18:45:00,
2013-03-25 14:50:00,43.2,31.9,29.60,East,87,7.0,12.0,64,0.00,BKN,,0.00,WeatherDisplay:10.37,2013-03-25 18:50:00,
2013-03-25 14:55:00,43.1,32.5,29.59,ENE,75,3.0,7.0,66,0.00,BKN,,0.00,WeatherDisplay:10.37,2013-03-25 18:55:00,
2013-03-25 15:05:00,42.6,32.0,29.59,East,89,2.0,8.0,66,0.00,BKN,,0.00,WeatherDisplay:10.37,2013-03-25 19:05:00,
2013-03-25 15:10:00,42.6,32.4,29.58,ENE,64,3.0,9.0,67,0.00,BKN,,0.00,WeatherDisplay:10.37,2013-03-25 19:10:00,
2013-03-25 15:15:00,42.7,32.5,29.58,ENE,74,2.0,8.0,67,0.00,BKN,,0.00,WeatherDisplay:10.37,2013-03-25 19:15:00,
2013-03-25 15:25:00,42.6,31.7,29.57,East,82,6.0,12.0,65,0.00,BKN,,0.00,WeatherDisplay:10.37,2013-03-25 19:25:00,
2013-03-25 15:30:00,42.3,31.4,29.57,ENE,66,1.0,10.0,65,0.00,BKN,,0.00,WeatherDisplay:10.37,2013-03-25 19:30:00,
2013-03-25 15:35:00,42.1,31.5,29.56,East,81,6.0,12.0,66,0.00,BKN,,0.00,WeatherDisplay:10.37,2013-03-25 19:35:00,
2013-03-25 15:40:00,41.9,31.4,29.56,ESE,112,3.0,10.0,66,0.00,BKN,,0.00,WeatherDisplay:10.37,2013-03-25 19:40:00,
2013-03-25 15:45:00,42.0,31.5,29.55,ESE,104,3.0,13.0,66,0.00,BKN,,0.00,WeatherDisplay:10.37,2013-03-25 19:45:00,
2013-03-25 15:55:00,41.8,31.3,29.54,ENE,76,3.0,16.0,66,0.00,BKN,,0.00,WeatherDisplay:10.37,2013-03-25 19:55:00,
2013-03-25 16:00:00,41.5,31.0,29.54,NE,55,3.0,12.0,66,0.00,BKN,,0.00,WeatherDisplay:10.37,2013-03-25 20:00:00,
2013-03-25 16:05:00,41.5,31.7,29.53,NE,45,3.0,8.0,68,0.00,SCT,,0.00,WeatherDisplay:10.37,2013-03-25 20:05:00,
2013-03-25 16:10:00,41.6,31.8,29.53,ENE,68,3.0,12.0,68,0.00,SCT,,0.00,WeatherDisplay:10.37,2013-03-25 20:10:00,
2013-03-25 16:15:00,41.8,31.6,29.53,ENE,68,6.0,12.0,67,0.00,SCT,,0.00,WeatherDisplay:10.37,2013-03-25 20:15:00,
2013-03-25 16:20:00,41.6,31.4,29.53,NE,56,1.0,8.0,67,0.00,SCT,,0.00,WeatherDisplay:10.37,2013-03-25 20:20:00,
2013-03-25 16:25:00,41.5,31.4,29.54,East,89,6.0,12.0,67,0.00,SCT,,0.00,WeatherDisplay:10.37,2013-03-25 20:25:00,
2013-03-25 16:30:00,41.2,31.1,29.54,ENE,69,2.0,7.0,67,0.00,SCT,,0.00,WeatherDisplay:10.37,2013-03-25 20:30:00,
2013-03-25 16:35:00,41.1,31.0,29.54,ENE,59,3.0,9.0,67,0.00,SCT,,0.00,WeatherDisplay:10.37,2013-03-25 20:35:00,
2013-03-25 16:40:00,41.0,31.2,29.54,ENE,62,3.0,8.0,68,0.00,SCT,,0.00,WeatherDisplay:10.37,2013-03-25 20:40:00,
2013-03-25 16:45:00,40.9,31.5,29.54,ENE,64,2.0,8.0,69,0.00,SCT,,0.00,WeatherDisplay:10.37,2013-03-25 20:45:00,
2013-03-25 16:50:00,40.7,31.3,29.54,ENE,73,6.0,12.0,69,0.00,SCT,,0.00,WeatherDisplay:10.37,2013-03-25 20:50:00,
2013-03-25 16:55:00,40.5,31.1,29.54,ENE,65,5.0,12.0,69,0.00,SCT,,0.00,WeatherDisplay:10.37,2013-03-25 20:55:00,
2013-03-25 17:00:00,40.4,31.7,29.54,ENE,74,1.0,12.0,71,0.00,SCT,,0.00,WeatherDisplay:10.37,2013-03-25 21:00:00,
2013-03-25 17:05:00,40.3,31.6,29.54,ENE,74,5.0,8.0,71,0.00,SCT,,0.00,WeatherDisplay:10.37,2013-03-25 21:05:00,
2013-03-25 17:10:00,40.1,31.4,29.55,NE,54,2.0,13.0,71,0.00,SCT,,0.00,WeatherDisplay:10.37,2013-03-25 21:10:00,
2013-03-25 17:15:00,40.0,31.4,29.55,NE,53,2.0,8.0,71,0.00,SCT,,0.00,WeatherDisplay:10.37,2013-03-25 21:15:00,
2013-03-25 17:20:00,39.9,31.2,29.55,ENE,76,3.0,10.0,71,0.00,BKN,,0.00,WeatherDisplay:10.37,2013-03-25 21:20:00,
2013-03-25 17:25:00,39.8,31.1,29.55,NE,47,3.0,8.0,71,0.00,BKN,,0.00,WeatherDisplay:10.37,2013-03-25 21:25:00,
2013-03-25 17:30:00,39.7,31.1,29.55,NE,37,2.0,8.0,71,0.00,BKN,,0.00,WeatherDisplay:10.37,2013-03-25 21:30:00,
2013-03-25 17:35:00,39.7,30.8,29.54,ENE,60,6.0,9.0,70,0.00,BKN,,0.00,WeatherDisplay:10.37,2013-03-25 21:35:00,
2013-03-25 17:40:00,39.7,30.4,29.54,NE,53,7.0,10.0,69,0.00,BKN,,0.00,WeatherDisplay:10.37,2013-03-25 21:40:00,
2013-03-25 17:45:00,39.7,30.4,29.55,ENE,66,3.0,9.0,69,0.00,BKN,,0.00,WeatherDisplay:10.37,2013-03-25 21:45:00,
2013-03-25 17:50:00,39.6,30.6,29.55,East,93,3.0,14.0,70,0.00,BKN,,0.00,WeatherDisplay:10.37,2013-03-25 21:50:00,
2013-03-25 17:55:00,39.6,29.9,29.55,East,86,3.0,8.0,68,0.00,BKN,,0.00,WeatherDisplay:10.37,2013-03-25 21:55:00,
2013-03-25 18:00:00,39.5,30.5,29.55,ENE,77,3.0,12.0,70,0.00,BKN,,0.00,WeatherDisplay:10.37,2013-03-25 22:00:00,
2013-03-25 18:05:00,39.5,30.2,29.55,ENE,63,3.0,9.0,69,0.00,BKN,,0.00,WeatherDisplay:10.37,2013-03-25 22:05:00,
2013-03-25 18:10:00,39.5,30.5,29.55,NNE,32,2.0,9.0,70,0.00,BKN,,0.00,WeatherDisplay:10.37,2013-03-25 22:10:00,
2013-03-25 18:15:00,39.3,30.3,29.55,NE,34,2.0,9.0,70,0.00,BKN,,0.00,WeatherDisplay:10.37,2013-03-25 22:15:00,
2013-03-25 18:20:00,39.2,30.6,29.55,NE,48,1.0,5.0,71,0.00,BKN,,0.00,WeatherDisplay:10.37,2013-03-25 22:20:00,
2013-03-25 18:25:00,39.1,30.5,29.56,NE,48,0.0,5.0,71,0.00,BKN,,0.00,WeatherDisplay:10.37,2013-03-25 22:25:00,
2013-03-25 18:30:00,39.1,30.8,29.56,ENE,59,0.0,3.0,72,0.00,BKN,,0.00,WeatherDisplay:10.37,2013-03-25 22:30:00,
2013-03-25 18:35:00,38.9,30.7,29.56,ENE,58,3.0,7.0,72,0.00,BKN,,0.00,WeatherDisplay:10.37,2013-03-25 22:35:00,
2013-03-25 18:40:00,38.9,30.6,29.56,ENE,74,5.0,10.0,72,0.00,BKN,,0.00,WeatherDisplay:10.37,2013-03-25 22:40:00,
2013-03-25 18:45:00,38.8,30.9,29.56,ENE,74,3.0,6.0,73,0.00,BKN,,0.00,WeatherDisplay:10.37,2013-03-25 22:45:00,
2013-03-25 18:50:00,38.7,30.4,29.56,NE,48,1.0,5.0,72,0.00,BKN,,0.00,WeatherDisplay:10.37,2013-03-25 22:50:00,
2013-03-25 18:55:00,38.5,30.3,29.56,NE,46,2.0,9.0,72,0.00,BKN,,0.00,WeatherDisplay:10.37,2013-03-25 22:55:00,
2013-03-25 19:00:00,38.4,30.2,29.56,NE,44,0.0,5.0,72,0.00,BKN,,0.00,WeatherDisplay:10.37,2013-03-25 23:00:00,
2013-03-25 19:05:00,38.3,30.4,29.56,NE,38,1.0,6.0,73,0.00,BKN,,0.00,WeatherDisplay:10.37,2013-03-25 23:05:00,
2013-03-25 19:10:00,38.2,30.3,29.56,NNE,13,2.0,7.0,73,0.00,BKN,,0.00,WeatherDisplay:10.37,2013-03-25 23:10:00,
2013-03-25 19:15:00,38.0,30.5,29.56,NNE,23,2.0,4.0,74,0.00,BKN,,0.00,WeatherDisplay:10.37,2013-03-25 23:15:00,
2013-03-25 19:20:00,37.9,30.0,29.56,NE,52,3.0,6.0,73,0.00,BKN,,0.00,WeatherDisplay:10.37,2013-03-25 23:20:00,
2013-03-25 19:25:00,37.9,30.3,29.56,NE,53,2.0,6.0,74,0.00,BKN,,0.00,WeatherDisplay:10.37,2013-03-25 23:25:00,
2013-03-25 19:30:00,37.8,30.3,29.56,NE,45,2.0,6.0,74,0.00,BKN,,0.00,WeatherDisplay:10.37,2013-03-25 23:30:00,
2013-03-25 19:40:00,37.6,30.1,29.56,NE,43,1.0,5.0,74,0.00,BKN,,0.00,WeatherDisplay:10.37,2013-03-25 23:40:00,
2013-03-25 19:45:00,37.5,30.3,29.56,NE,48,0.0,3.0,75,0.00,BKN,,0.00,WeatherDisplay:10.37,2013-03-25 23:45:00,
2013-03-25 19:50:00,37.4,30.2,29.57,NE,46,2.0,4.0,75,0.00,BKN,,0.00,WeatherDisplay:10.37,2013-03-25 23:50:00,
2013-03-25 19:55:00,37.4,30.2,29.57,NNE,29,0.0,6.0,75,0.00,BKN,,0.00,WeatherDisplay:10.37,2013-03-25 23:55:00,
2013-03-25 20:00:00,37.3,30.1,29.57,NNE,17,1.0,7.0,75,0.00,BKN,,0.00,WeatherDisplay:10.37,2013-03-26 00:00:00,
2013-03-25 20:05:00,37.2,30.0,29.57,NNE,18,1.0,3.0,75,0.00,BKN,,0.00,WeatherDisplay:10.37,2013-03-26 00:05:00,
2013-03-25 20:10:00,37.1,29.9,29.57,NNE,28,1.0,5.0,75,0.00,BKN,,0.00,WeatherDisplay:10.37,2013-03-26 00:10:00,
2013-03-25 20:15:00,37.1,30.2,29.57,NNE,27,0.0,3.0,76,0.00,BKN,,0.00,WeatherDisplay:10.37,2013-03-26 00:15:00,
2013-03-25 20:20:00,37.1,30.2,29.57,NE,34,1.0,4.0,76,0.00,OVC,,0.00,WeatherDisplay:10.37,2013-03-26 00:20:00,
2013-03-25 20:25:00,37.0,29.8,29.57,NNE,17,1.0,5.0,75,0.00,OVC,,0.00,WeatherDisplay:10.37,2013-03-26 00:25:00,
2013-03-25 20:30:00,37.0,29.8,29.57,North,357,2.0,5.0,75,0.00,OVC,,0.00,WeatherDisplay:10.37,2013-03-26 00:30:00,
2013-03-25 20:35:00,37.0,29.8,29.58,North,359,1.0,4.0,75,0.00,OVC,,0.00,WeatherDisplay:10.37,2013-03-26 00:35:00,
2013-03-25 20:40:00,37.0,30.1,29.58,NNE,15,1.0,3.0,76,0.00,OVC,,0.00,WeatherDisplay:10.37,2013-03-26 00:40:00,
2013-03-25 20:45:00,36.9,30.0,29.58,NNE,22,0.0,3.0,76,0.00,OVC,,0.00,WeatherDisplay:10.37,2013-03-26 00:45:00,
2013-03-25 20:50:00,36.9,30.0,29.57,NNE,12,1.0,3.0,76,0.00,OVC,,0.00,WeatherDisplay:10.37,2013-03-26 00:50:00,
2013-03-25 20:55:00,36.8,29.9,29.57,NNW,348,0.0,1.0,76,0.00,OVC,,0.00,WeatherDisplay:10.37,2013-03-26 00:55:00,
2013-03-25 21:00:00,36.7,29.8,29.58,NNW,342,0.0,4.0,76,0.00,OVC,,0.00,WeatherDisplay:10.37,2013-03-26 01:00:00,
2013-03-25 21:05:00,36.6,30.1,29.58,North,5,0.0,2.0,77,0.00,OVC,,0.00,WeatherDisplay:10.37,2013-03-26 01:05:00,
2013-03-25 21:10:00,36.5,30.0,29.58,NNE,24,1.0,3.0,77,0.00,OVC,,0.00,WeatherDisplay:10.37,2013-03-26 01:10:00,
2013-03-25 21:15:00,36.5,30.0,29.57,NNE,23,0.0,3.0,77,0.00,OVC,,0.00,WeatherDisplay:10.37,2013-03-26 01:15:00,
2013-03-25 21:20:00,36.4,29.6,29.58,NNE,20,0.0,2.0,76,0.00,OVC,,0.00,WeatherDisplay:10.37,2013-03-26 01:20:00,
2013-03-25 21:25:00,36.4,29.9,29.58,NNE,22,1.0,5.0,77,0.00,OVC,,0.00,WeatherDisplay:10.37,2013-03-26 01:25:00,
2013-03-25 21:30:00,36.4,29.9,29.57,NNE,26,0.0,0.0,77,0.00,OVC,,0.00,WeatherDisplay:10.37,2013-03-26 01:30:00,
2013-03-25 21:35:00,36.4,29.9,29.57,North,8,0.0,3.0,77,0.00,OVC,,0.00,WeatherDisplay:10.37,2013-03-26 01:35:00,
2013-03-25 21:40:00,36.3,29.8,29.57,NNW,338,0.0,0.0,77,0.00,OVC,,0.00,WeatherDisplay:10.37,2013-03-26 01:40:00,
2013-03-25 21:45:00,36.3,29.8,29.57,NNW,336,0.0,0.0,77,0.00,OVC,,0.00,WeatherDisplay:10.37,2013-03-26 01:45:00,
2013-03-25 21:50:00,36.2,29.7,29.57,NNW,331,0.0,2.0,77,0.00,OVC,,0.00,WeatherDisplay:10.37,2013-03-26 01:50:00,
2013-03-25 21:55:00,36.2,29.7,29.57,NNW,344,0.0,2.0,77,0.00,OVC,,0.00,WeatherDisplay:10.37,2013-03-26 01:55:00,
2013-03-25 22:00:00,36.2,29.7,29.57,NNE,20,0.0,2.0,77,0.00,OVC,,0.00,WeatherDisplay:10.37,2013-03-26 02:00:00,
2013-03-25 22:05:00,36.2,29.4,29.57,NNE,28,0.0,2.0,76,0.00,OVC,,0.00,WeatherDisplay:10.37,2013-03-26 02:05:00,
2013-03-25 22:10:00,36.2,29.3,29.57,North,2,0.0,2.0,76,0.00,OVC,,0.00,WeatherDisplay:10.37,2013-03-26 02:10:00,
2013-03-25 22:15:00,36.2,29.4,29.57,NNW,331,0.0,2.0,76,0.00,OVC,,0.00,WeatherDisplay:10.37,2013-03-26 02:15:00,
2013-03-25 22:20:00,36.2,29.0,29.56,NNW,334,0.0,3.0,75,0.00,OVC,,0.00,WeatherDisplay:10.37,2013-03-26 02:20:00,
2013-03-25 22:25:00,36.2,29.4,29.56,North,355,0.0,0.0,76,0.00,OVC,,0.00,WeatherDisplay:10.37,2013-03-26 02:25:00,
2013-03-25 22:30:00,36.2,29.0,29.56,NNW,343,0.0,0.0,75,0.00,OVC,,0.00,WeatherDisplay:10.37,2013-03-26 02:30:00,
2013-03-25 22:35:00,36.2,29.0,29.56,NW,323,0.0,0.0,75,0.00,OVC,,0.00,WeatherDisplay:10.37,2013-03-26 02:35:00,
2013-03-25 22:40:00,36.1,28.9,29.56,NW,315,0.0,0.0,75,0.00,OVC,,0.00,WeatherDisplay:10.37,2013-03-26 02:40:00,
2013-03-25 22:45:00,36.1,28.9,29.56,NW,315,0.0,0.0,75,0.00,OVC,,0.00,WeatherDisplay:10.37,2013-03-26 02:45:00,
2013-03-25 22:50:00,36.1,28.6,29.56,NW,314,0.0,0.0,74,0.00,OVC,,0.00,WeatherDisplay:10.37,2013-03-26 02:50:00,
2013-03-25 22:55:00,36.0,28.8,29.56,NW,321,0.0,0.0,75,0.00,OVC,,0.00,WeatherDisplay:10.37,2013-03-26 02:55:00,
2013-03-25 23:00:00,36.0,28.5,29.55,NNW,328,0.0,0.0,74,0.00,OVC,,0.00,WeatherDisplay:10.37,2013-03-26 03:00:00,
2013-03-25 23:05:00,36.0,28.8,29.55,NNW,328,0.0,0.0,75,0.00,OVC,,0.00,WeatherDisplay:10.37,2013-03-26 03:05:00,
2013-03-25 23:10:00,35.9,28.8,29.55,NNW,343,0.0,0.0,75,0.00,OVC,,0.00,WeatherDisplay:10.37,2013-03-26 03:10:00,
2013-03-25 23:15:00,35.9,28.7,29.55,North,355,0.0,0.0,75,0.00,OVC,,0.00,WeatherDisplay:10.37,2013-03-26 03:15:00,
2013-03-25 23:20:00,35.9,28.7,29.55,North,355,0.0,0.0,75,0.00,OVC,,0.00,WeatherDisplay:10.37,2013-03-26 03:20:00,
2013-03-25 23:25:00,35.8,28.6,29.55,North,355,0.0,0.0,75,0.00,OVC,,0.00,WeatherDisplay:10.37,2013-03-26 03:25:00,
2013-03-25 23:30:00,35.8,28.6,29.55,North,3,0.0,0.0,75,0.00,OVC,,0.00,WeatherDisplay:10.37,2013-03-26 03:30:00,
2013-03-25 23:40:00,35.8,28.3,29.55,North,10,1.0,2.0,74,0.00,OVC,,0.00,WeatherDisplay:10.37,2013-03-26 03:40:00,
2013-03-25 23:45:00,35.8,28.6,29.55,North,0,0.0,1.0,75,0.00,OVC,,0.00,WeatherDisplay:10.37,2013-03-26 03:45:00,
2013-03-25 23:50:00,35.7,28.2,29.55,North,355,0.0,2.0,74,0.00,OVC,,0.00,WeatherDisplay:10.37,2013-03-26 03:50:00,
2013-03-25 23:55:00,35.7,28.2,29.55,North,354,0.0,2.0,74,0.00,OVC,,0.00,WeatherDisplay:10.37,2013-03-26 03:55:00,